User: anonymous   Login
Location: Unspecified
(0.0000°N, 0.0000°E)
Time: 15:13:41
(UTC+00:00)
Language:

M3MSAT - Orbit

View from above orbital plane
View from above orbital plane
View from above satellite
View from above satellite

Ground track
Ground track

The orbit data is extracted from the following two-line orbital elements,

1 41605U 16040G   18051.75866371 +.00000550 +00000-0 +28270-4 0  9998
2 41605 097.4294 115.9922 0010802 291.5172 068.4911 15.20518623092441
Epoch (UTC): 20 February 2018 18:12:28
Eccentricity: 0.0010802
inclination: 97.4294°
perigee height: 497 km
apogee height: 512 km
right ascension of ascending node: 115.9922°
argument of perigee: 291.5172°
revolutions per day: 15.20518623
mean anomaly at epoch: 68.4911°
orbit number at epoch: 9244

The dashed part of the orbit path shows where the satellite is in the earth's shadow,  

DLR